| time (UTC) | temp F | wind direction | speed knots | gust knots | rain 1hr in | rain 24hr in | rain mn in | humidity % | barometer mb |
| 20260506200024 | 55 | 320 | 2.6 | 8.7 | 0.00 | 0.46 | 0.42 | 53 | 1011.0 |
| 20260506194514 | 55 | 270 | 0.0 | 6.1 | 0.01 | 0.46 | 0.42 | 55 | 1010.9 |
| 20260506193015 | 54 | 279 | 2.6 | 7.0 | 0.01 | 0.46 | 0.42 | 55 | 1011.0 |
| 20260506191512 | 55 | 347 | 2.6 | 7.8 | 0.01 | 0.46 | 0.42 | 59 | 1011.0 |
| 20260506190010 | 54 | 318 | 0.9 | 2.6 | 0.01 | 0.46 | 0.42 | 63 | 1011.0 |
| 20260506184509 | 54 | 356 | 3.5 | 7.8 | 0.00 | 0.45 | 0.41 | 61 | 1011.0 |
| 20260506183008 | 55 | 346 | 1.7 | 7.0 | 0.00 | 0.45 | 0.41 | 60 | 1010.8 |
| 20260506181506 | 54 | 294 | 1.7 | 5.2 | 0.00 | 0.45 | 0.41 | 64 | 1010.8 |
| 20260506180005 | 53 | 322 | 2.6 | 8.7 | 0.00 | 0.45 | 0.41 | 66 | 1010.7 |
| 20260506174503 | 53 | 354 | 1.7 | 7.0 | 0.00 | 0.45 | 0.41 | 69 | 1010.7 |
| 20260506173002 | 52 | 351 | 4.3 | 7.8 | 0.00 | 0.45 | 0.41 | 67 | 1010.7 |
| 20260506171501 | 52 | 347 | 1.7 | 4.3 | 0.00 | 0.45 | 0.41 | 68 | 1010.5 |
| 20260506164559 | 52 | 339 | 0.0 | 6.1 | 0.00 | 0.45 | 0.41 | 69 | 1010.5 |
| 20260506163113 | 51 | 288 | 1.7 | 3.5 | 0.00 | 0.45 | 0.41 | 71 | 1010.5 |
| 20260506161603 | 51 | 9 | 2.6 | 4.3 | 0.00 | 0.45 | 0.41 | 73 | 1010.2 |
| 20260506160057 | 50 | 17 | 1.7 | 7.8 | 0.00 | 0.45 | 0.41 | 73 | 1010.1 |
| 20260506154602 | 50 | 351 | 0.0 | 6.1 | 0.00 | 0.45 | 0.41 | 76 | 1009.8 |
| 20260506153053 | 49 | 341 | 1.7 | 7.8 | 0.00 | 0.45 | 0.41 | 76 | 1009.8 |
| 20260506151552 | 49 | 330 | 2.6 | 7.8 | 0.00 | 0.45 | 0.41 | 77 | 1009.6 |
| 20260506150051 | 49 | 328 | 3.5 | 8.7 | 0.00 | 0.45 | 0.41 | 77 | 1009.3 |
| 20260506144548 | 48 | 343 | 2.6 | 10.4 | 0.00 | 0.45 | 0.41 | 78 | 1008.9 |
| 20260506143046 | 48 | 8 | 1.7 | 7.0 | 0.00 | 0.45 | 0.41 | 78 | 1008.7 |
| 20260506141552 | 48 | 3 | 1.7 | 6.1 | 0.00 | 0.45 | 0.41 | 78 | 1008.6 |
| 20260506140053 | 48 | 360 | 1.7 | 8.7 | 0.01 | 0.45 | 0.41 | 78 | 1008.1 |
| 20260506134541 | 47 | 333 | 0.9 | 4.3 | 0.02 | 0.45 | 0.41 | 78 | 1008.3 |
| 20260506133040 | 47 | 323 | 3.5 | 9.6 | 0.02 | 0.45 | 0.41 | 78 | 1008.1 |
| 20260506131537 | 47 | 36 | 2.6 | 12.2 | 0.02 | 0.45 | 0.41 | 78 | 1008.0 |
| 20260506130036 | 47 | 360 | 2.6 | 8.7 | 0.02 | 0.44 | 0.40 | 78 | 1007.8 |
| 20260506124532 | 47 | 359 | 4.3 | 13.9 | 0.01 | 0.43 | 0.39 | 78 | 1007.9 |
| 20260506123030 | 48 | 8 | 2.6 | 8.7 | 0.02 | 0.43 | 0.39 | 77 | 1007.0 |
| 20260506121528 | 48 | 19 | 2.6 | 7.0 | 0.01 | 0.42 | 0.38 | 77 | 1006.1 |
| 20260506120031 | 48 | 298 | 3.5 | 7.8 | 0.02 | 0.42 | 0.38 | 77 | 1006.7 |
| 20260506114524 | 49 | 262 | 2.6 | 10.4 | 0.03 | 0.42 | 0.38 | 77 | 1006.8 |
| 20260506113021 | 49 | 327 | 4.3 | 9.6 | 0.03 | 0.41 | 0.37 | 76 | 1006.5 |
| 20260506111521 | 50 | 10 | 5.2 | 10.4 | 0.05 | 0.41 | 0.37 | 76 | 1005.9 |
| 20260506110015 | 51 | 314 | 3.5 | 11.3 | 0.06 | 0.40 | 0.36 | 75 | 1005.6 |
| 20260506104510 | 55 | 351 | 2.6 | 13.0 | 0.06 | 0.39 | 0.35 | 77 | 1005.2 |
| 20260506103011 | 56 | 219 | 0.0 | 3.5 | 0.07 | 0.38 | 0.34 | 78 | 1004.9 |
| 20260506101508 | 56 | 171 | 0.9 | 4.3 | 0.08 | 0.36 | 0.32 | 78 | 1004.9 |
| 20260506100007 | 56 | 195 | 1.7 | 5.2 | 0.08 | 0.34 | 0.30 | 78 | 1005.1 |
| 20260506094506 | 56 | 248 | 0.0 | 4.3 | 0.10 | 0.33 | 0.28 | 77 | 1004.9 |
| 20260506093011 | 56 | 298 | 0.9 | 6.1 | 0.11 | 0.31 | 0.27 | 77 | 1004.9 |
| 20260506091504 | 56 | 260 | 0.0 | 4.3 | 0.13 | 0.28 | 0.24 | 77 | 1004.9 |
| 20260506090003 | 56 | 275 | 0.0 | 4.3 | 0.13 | 0.26 | 0.22 | 77 | 1005.0 |
| 20260506084604 | 56 | 187 | 0.9 | 2.6 | 0.14 | 0.24 | 0.20 | 76 | 1005.4 |
| 20260506083100 | 56 | 194 | 0.9 | 2.6 | 0.12 | 0.20 | 0.16 | 75 | 1005.6 |
| 20260506081559 | 56 | 303 | 0.0 | 3.5 | 0.08 | 0.16 | 0.12 | 74 | 1005.7 |
| 20260506080111 | 56 | 170 | 0.0 | 2.6 | 0.05 | 0.13 | 0.09 | 73 | 1005.4 |
| 20260506073110 | 56 | 243 | 0.0 | 3.5 | 0.00 | 0.08 | 0.04 | 70 | 1005.4 |
| 20260506071554 | 56 | 188 | 0.9 | 1.7 | 0.00 | 0.08 | 0.04 | 69 | 1005.2 |
| 20260506061558 | 57 | 193 | 0.0 | 3.5 | 0.03 | 0.14 | 0.04 | 67 | 1006.2 |
| 20260506044534 | 59 | 205 | 0.9 | 3.5 | 0.02 | 0.08 | 0.08 | 64 | 1007.4 |
| 20260506043033 | 59 | 186 | 0.0 | 1.7 | 0.02 | 0.08 | 0.08 | 64 | 1007.5 |
| 20260506041530 | 60 | 312 | 0.0 | 1.7 | 0.00 | 0.06 | 0.06 | 62 | 1007.7 |
| 20260506040030 | 60 | 273 | 0.0 | 2.6 | 0.00 | 0.06 | 0.06 | 60 | 1007.9 |
| 20260506034528 | 61 | 285 | 0.0 | 3.5 | 0.00 | 0.06 | 0.06 | 58 | 1007.5 |
| 20260506033027 | 62 | 322 | 0.0 | 2.6 | 0.00 | 0.06 | 0.06 | 56 | 1007.4 |
| 20260506031527 | 62 | 303 | 0.9 | 6.1 | 0.00 | 0.06 | 0.06 | 55 | 1007.2 |
| 20260506030027 | 63 | 307 | 2.6 | 7.0 | 0.00 | 0.06 | 0.06 | 53 | 1007.2 |
| 20260506024525 | 64 | 331 | 0.0 | 0.9 | 0.00 | 0.06 | 0.06 | 53 | 1007.0 |
| 20260506023026 | 64 | 333 | 0.9 | 3.5 | 0.00 | 0.06 | 0.06 | 53 | 1007.3 |
| 20260506021525 | 66 | 322 | 0.9 | 5.2 | 0.00 | 0.06 | 0.06 | 51 | 1007.2 |
| 20260506020046 | 67 | 212 | 0.9 | 4.3 | 0.00 | 0.06 | 0.06 | 44 | 1007.1 |
| 20260506014524 | 67 | 243 | 0.9 | 7.0 | 0.00 | 0.06 | 0.06 | 44 | 1007.0 |
| 20260506013023 | 68 | 224 | 0.9 | 4.3 | 0.00 | 0.06 | 0.06 | 43 | 1006.9 |
| 20260506011526 | 68 | 272 | 1.7 | 7.8 | 0.00 | 0.06 | 0.06 | 43 | 1006.9 |
| 20260506010028 | 68 | 214 | 1.7 | 7.0 | 0.00 | 0.06 | 0.06 | 42 | 1006.7 |
| 20260506004525 | 68 | 31 | 1.7 | 9.6 | 0.00 | 0.06 | 0.06 | 42 | 1006.7 |
| 20260506003022 | 69 | 195 | 2.6 | 8.7 | 0.00 | 0.06 | 0.06 | 41 | 1006.9 |
| 20260506001520 | 69 | 279 | 2.6 | 13.0 | 0.00 | 0.06 | 0.06 | 41 | 1006.8 |
| 20260506000031 | 69 | 258 | 3.5 | 12.2 | 0.00 | 0.06 | 0.06 | 41 | 1006.9 |
| 20260505234521 | 70 | 229 | 2.6 | 8.7 | 0.00 | 0.06 | 0.06 | 41 | 1007.0 |
| 20260505233018 | 70 | 195 | 1.7 | 8.7 | 0.00 | 0.06 | 0.06 | 42 | 1006.8 |
| 20260505231520 | 70 | 304 | 2.6 | 8.7 | 0.00 | 0.06 | 0.06 | 41 | 1006.8 |
| 20260505230030 | 70 | 145 | 2.6 | 8.7 | 0.00 | 0.06 | 0.06 | 42 | 1006.7 |
| 20260505224517 | 70 | 260 | 3.5 | 12.2 | 0.00 | 0.06 | 0.06 | 42 | 1006.8 |
| 20260505223016 | 70 | 235 | 1.7 | 7.8 | 0.00 | 0.06 | 0.06 | 43 | 1006.9 |
| 20260505221516 | 70 | 277 | 3.5 | 10.4 | 0.00 | 0.06 | 0.06 | 43 | 1007.2 |
| 20260505220016 | 71 | 229 | 3.5 | 10.4 | 0.00 | 0.06 | 0.06 | 43 | 1007.1 |
| 20260505214515 | 71 | 212 | 3.5 | 13.9 | 0.00 | 0.06 | 0.06 | 43 | 1007.2 |
| 20260505213016 | 71 | 265 | 2.6 | 10.4 | 0.00 | 0.06 | 0.06 | 43 | 1007.2 |
| 20260505211521 | 71 | 153 | 3.5 | 14.8 | 0.00 | 0.06 | 0.06 | 43 | 1007.3 |
| 20260505210014 | 71 | 262 | 3.5 | 13.0 | 0.00 | 0.06 | 0.06 | 41 | 1007.2 |
| 20260505204514 | 71 | 219 | 3.5 | 8.7 | 0.00 | 0.06 | 0.06 | 44 | 1007.4 |
| 20260505203016 | 71 | 274 | 4.3 | 14.8 | 0.00 | 0.06 | 0.06 | 41 | 1007.4 |
| 20260505201511 | 71 | 257 | 5.2 | 14.8 | 0.00 | 0.06 | 0.06 | 43 | 1007.3 |